Weather History for Pampa, TX

Change the Weather History Date:

Saturday, February 16, 2013

  Actual Average Record
Temperature  
Mean Temperature 40 °F -  
Max Temperature 57 °F 50 °F 78 °F (2011)
Min Temperature 23 °F 25 °F 7 °F (1979)
Degree Days  
Heating Degree Days 25    
Moisture  
Dew Point 25 °F    
Average Humidity 66    
Maximum Humidity 93    
Minimum Humidity 26    
Precipitation  
Precipitation 0.00 in - - ()
Sea Level Pressure  
Sea Level Pressure 30.20 in    
Wind  
Wind Speed 9 mph (WSW)    
Max Wind Speed 18 mph    
Max Gust Speed 21 mph    
Visibility 10 miles    
Events      
Averages and records for this station are not official NWS values.
T = Trace of Precipitation, MM = Missing Value Source: NWS Daily Summary

Daily Weather History Graph

Daily Weather History Graph

Search for Another Location

Airport:

Trip Planner

Search our weather history database for the weather conditions in past years. The results will help you decide how hot, cold, wet, or windy it might be!

Date:

Astronomy

Feb. 16, 2013 Rise Set
Actual Time 7:29 AM CST 6:27 PM CST
Civil Twilight 7:03 AM CST 6:53 PM CST
Nautical Twilight 6:33 AM CST 7:23 PM CST
Astronomical Twilight 6:03 AM CST 7:52 PM CST
Moon 10:58 AM CST (2/16) 12:14 AM CST (2/16)
Length of Visible Light 11h 50m
Length of Day
10h 57m
Waxing Crescent, 39% of the Moon is Illuminated
Feb 16
Waxing Crescent
Feb 17
First Quarter
Feb 25
Full
Mar 4
Last Quarter
Mar 11
New

Hourly Weather History & Observations

Time (CST) Temp. Windchill Dew Point Humidity Pressure Visibility Wind Dir Wind Speed Gust Speed Precip Events Conditions
12:15 AM 30.2 °F 21.9 °F 23.0 °F 75% 30.37 in 10.0 mi North 9.2 mph - N/A   Clear
12:35 AM 30.2 °F 21.9 °F 23.0 °F 75% 30.37 in 10.0 mi North 9.2 mph - N/A   Clear
12:55 AM 28.4 °F 22.2 °F 23.0 °F 80% 30.37 in 10.0 mi North 5.8 mph - N/A   Clear
1:15 AM 28.4 °F 21.2 °F 23.0 °F 80% 30.36 in 10.0 mi North 6.9 mph - N/A   Clear
1:35 AM 28.4 °F 20.4 °F 23.0 °F 80% 30.36 in 10.0 mi North 8.1 mph - N/A   Clear
1:55 AM 26.6 °F 19.1 °F 21.2 °F 80% 30.36 in 10.0 mi West 6.9 mph - N/A   Clear
2:15 AM 26.6 °F 19.1 °F 21.2 °F 80% 30.35 in 10.0 mi NNW 6.9 mph - N/A   Clear
2:35 AM 26.6 °F 20.0 °F 23.0 °F 86% 30.35 in 10.0 mi NW 5.8 mph - N/A   Clear
2:55 AM 26.6 °F 20.0 °F 21.2 °F 80% 30.35 in 10.0 mi NW 5.8 mph - N/A   Clear
3:15 AM 24.8 °F 17.9 °F 21.2 °F 86% 30.34 in 10.0 mi NW 5.8 mph - N/A   Clear
3:35 AM 24.8 °F 19.1 °F 21.2 °F 86% 30.34 in 10.0 mi WNW 4.6 mph - N/A   Clear
3:55 AM 24.8 °F 19.1 °F 21.2 °F 86% 30.33 in 10.0 mi NW 4.6 mph - N/A   Clear
4:15 AM 24.8 °F 17.9 °F 21.2 °F 86% 30.34 in 10.0 mi WNW 5.8 mph - N/A   Clear
4:35 AM 24.8 °F 17.9 °F 21.2 °F 86% 30.33 in 10.0 mi WNW 5.8 mph - N/A   Clear
5:15 AM 24.8 °F 17.9 °F 21.2 °F 86% 30.33 in 10.0 mi West 5.8 mph - N/A   Clear
5:35 AM 23.0 °F 14.7 °F 21.2 °F 93% 30.33 in 10.0 mi West 6.9 mph - N/A   Clear
5:55 AM 24.8 °F 17.9 °F 21.2 °F 86% 30.32 in 10.0 mi West 5.8 mph - N/A   Clear
6:15 AM 24.8 °F 17.9 °F 21.2 °F 86% 30.30 in 10.0 mi West 5.8 mph - N/A   Clear
6:35 AM 23.0 °F 13.9 °F 21.2 °F 93% 30.30 in 10.0 mi WSW 8.1 mph - N/A   Clear
6:55 AM 24.8 °F 16.1 °F 21.2 °F 86% 30.30 in 10.0 mi WSW 8.1 mph - N/A   Clear
7:15 AM 23.0 °F 13.1 °F 21.2 °F 93% 30.30 in 10.0 mi WSW 9.2 mph - N/A   Clear
7:35 AM 24.8 °F 15.3 °F 21.2 °F 86% 30.29 in 10.0 mi WSW 9.2 mph - N/A   Clear
7:55 AM 26.6 °F 19.1 °F 21.2 °F 80% 30.29 in 10.0 mi WSW 6.9 mph - N/A   Clear
8:15 AM 28.4 °F 17.0 °F 23.0 °F 80% 30.29 in 10.0 mi WSW 15.0 mph - N/A   Clear
8:35 AM 30.2 °F 19.8 °F 23.0 °F 75% 30.29 in 10.0 mi West 13.8 mph - N/A   Clear
8:55 AM 32.0 °F 21.6 °F 24.8 °F 75% 30.29 in 10.0 mi West 15.0 mph - N/A   Clear
9:15 AM 32.0 °F 21.2 °F 24.8 °F 75% 30.28 in 10.0 mi West 16.1 mph 20.7 mph N/A   Clear
9:35 AM 33.8 °F 23.5 °F 26.6 °F 75% 30.27 in 10.0 mi West 16.1 mph - N/A   Clear
12:15 PM 44.6 °F 37.2 °F 26.6 °F 49% 30.23 in 10.0 mi West 17.3 mph - N/A   Clear
12:35 PM 46.4 °F 39.2 °F 26.6 °F 46% 30.23 in 10.0 mi West 18.4 mph - N/A   Clear
12:55 PM 48.2 °F - 26.6 °F 43% 30.21 in 10.0 mi West 17.3 mph 20.7 mph N/A   Clear
1:15 PM 50.0 °F - 26.6 °F 40% 30.20 in 10.0 mi West 11.5 mph - N/A   Clear
1:35 PM 50.0 °F - 26.6 °F 40% 30.19 in 10.0 mi West 11.5 mph - N/A   Clear
1:55 PM 51.8 °F - 26.6 °F 38% 30.17 in 10.0 mi West 9.2 mph - N/A   Clear
2:15 PM 53.6 °F - 26.6 °F 35% 30.16 in 10.0 mi WSW 5.8 mph - N/A   Clear
2:35 PM 53.6 °F - 26.6 °F 35% 30.14 in 10.0 mi SW 3.5 mph - N/A   Clear
2:55 PM 55.4 °F - 24.8 °F 31% 30.14 in 10.0 mi West 8.1 mph - N/A   Clear
3:15 PM 55.4 °F - 23.0 °F 29% 30.12 in 10.0 mi West 9.2 mph - N/A   Clear
3:35 PM 55.4 °F - 21.2 °F 26% 30.11 in 10.0 mi WSW 9.2 mph - N/A   Clear
3:55 PM 57.2 °F - 23.0 °F 27% 30.10 in 10.0 mi WSW 8.1 mph - N/A   Clear
4:15 PM 57.2 °F - 23.0 °F 27% 30.10 in 10.0 mi WSW 10.4 mph - N/A   Clear
4:35 PM 57.2 °F - 23.0 °F 27% 30.10 in 10.0 mi WSW 9.2 mph - N/A   Clear
4:55 PM 57.2 °F - 23.0 °F 27% 30.10 in 10.0 mi WSW 10.4 mph - N/A   Clear
5:35 PM 55.4 °F - 28.4 °F 36% 30.08 in 10.0 mi SW 10.4 mph - N/A   Clear
5:55 PM 53.6 °F - 28.4 °F 38% 30.08 in 10.0 mi SSW 8.1 mph - N/A   Clear
6:15 PM 48.2 °F - 30.2 °F 50% 30.08 in 10.0 mi SSW 8.1 mph - N/A   Clear
6:35 PM 44.6 °F 39.7 °F 32.0 °F 61% 30.08 in 10.0 mi SSW 9.2 mph - N/A   Clear
6:55 PM 42.8 °F 36.6 °F 30.2 °F 61% 30.08 in 10.0 mi SSW 11.5 mph - N/A   Clear
7:15 PM 41.0 °F 34.3 °F 30.2 °F 65% 30.08 in 10.0 mi SSW 11.5 mph - N/A   Clear
7:35 PM 41.0 °F 34.3 °F 30.2 °F 65% 30.07 in 10.0 mi SSW 11.5 mph - N/A   Clear
7:55 PM 37.4 °F 30.8 °F 30.2 °F 75% 30.07 in 10.0 mi South 9.2 mph - N/A   Clear
8:15 PM 37.4 °F 29.8 °F 28.4 °F 70% 30.07 in 10.0 mi SSW 11.5 mph - N/A   Clear
8:35 PM 35.6 °F 28.0 °F 28.4 °F 75% 30.07 in 10.0 mi South 10.4 mph - N/A   Clear
8:55 PM 37.4 °F 30.3 °F 28.4 °F 70% 30.07 in 10.0 mi South 10.4 mph - N/A   Clear
9:15 PM 35.6 °F 28.0 °F 28.4 °F 75% 30.07 in 10.0 mi South 10.4 mph - N/A   Clear
9:35 PM 33.8 °F 25.8 °F 26.6 °F 75% 30.07 in 10.0 mi South 10.4 mph - N/A   Clear
9:55 PM 33.8 °F 25.8 °F 26.6 °F 75% 30.06 in 10.0 mi South 10.4 mph - N/A   Clear
10:15 PM 33.8 °F 25.8 °F 26.6 °F 75% 30.06 in 10.0 mi South 10.4 mph - N/A   Clear
10:35 PM 33.8 °F 25.3 °F 26.6 °F 75% 30.06 in 10.0 mi South 11.5 mph - N/A   Clear
10:55 PM 35.6 °F 27.5 °F 26.6 °F 70% 30.06 in 10.0 mi South 11.5 mph - N/A   Clear
11:15 PM 35.6 °F 27.5 °F 26.6 °F 70% 30.05 in 10.0 mi South 11.5 mph - N/A   Clear
11:35 PM 35.6 °F 27.5 °F 26.6 °F 70% 30.05 in 10.0 mi South 11.5 mph - N/A   Clear
11:55 PM 35.6 °F 27.5 °F 26.6 °F 70% 30.03 in 10.0 mi South 11.5 mph - N/A   Clear